1998-067WL

Last updated on Thu Nov 21 2024 00:02:09 GMT+0000 (Coordinated Universal Time)

1 59561U 98067WL 24325.16542453 .00325202 51884-4 88923-3 0 9999 2 59561 51.6165 239.8715 0006678 141.5486 218.5998 15.93515400 33778
UTC large
Height (km)
Speed (km/s)
/
Latitude / Longitude
Inclination (degrees)
Orbital Period (minutes)
Azimuth
Elevation
Range (km)
Doppler Factor

Next 0 passes for location: London (51.5072 / 0.1276)

Sorry there are no passes over London.